This demonstration page uses our WeatherBlox Daily Observations layout. Learn more.

Left ArrowRight Arrow

39.08367, -84.50855

Hourly Observations for October 17, 2018

Temp ( °F °C ) Dew Point ( °F °C ) Humidity (%) Winds ( mph kmh ) Pressure ( in mb ) Visibility ( mi km ) Precip ( " mm )
1:53 am 01:53 Clear 44 6.7 39 3.9 83 83 WSW 8 13 30.22 1023 10 16 N/A
2:53 am 02:53 Clear 43 6.1 39 3.9 86 86 SW 7 11 30.22 1023 10 16 N/A
3:53 am 03:53 Clear 42 5.6 38 3.3 85 85 S 6 9 30.20 1023 10 16 N/A
4:53 am 04:53 Clear 42 5.6 38 3.3 85 85 SW 6 9 30.20 1023 10 16 N/A
5:53 am 05:53 Clear 42 5.6 38 3.3 85 85 SW 9 15 30.21 1023 10 16 N/A
6:53 am 06:53 Clear 41 5 38 3.3 89 89 SW 5 7 30.23 1024 10 16 N/A
7:53 am 07:53 Sunny 39 3.9 38 3.3 96 96 S 7 11 30.24 1024 10 16 N/A
8:53 am 08:53 Sunny 44 6.7 41 5 89 89 S 7 11 30.25 1025 10 16 N/A
9:53 am 09:53 Sunny 48 8.9 41 5 77 77 WSW 8 13 30.27 1025 10 16 N/A
10:53 am 10:53 Sunny 51 10.6 43 6.1 74 74 WSW 8 13 30.27 1025 10 16 N/A
11:53 am 11:53 Sunny 55 12.8 43 6.1 64 64 SW 9 15 30.27 1025 10 16 N/A
12:53 pm 12:53 Sunny 59 15 44 6.7 58 58 WSW 12 19 30.26 1025 10 16 N/A
1:53 pm 13:53 Sunny 61 16.1 41 5 48 48 WSW 13 20 30.24 1024 10 16 N/A
2:53 pm 14:53 Sunny 63 17.2 38 3.3 40 40 W 14 22 30.23 1024 10 16 N/A
3:53 pm 15:53 Sunny 62 16.7 34 1.1 35 35 W 16 26 30.25 1024 10 16 N/A
4:53 pm 16:53 Sunny 61 16.1 32 undefined 34 34 NW 14 22 30.26 1025 10 16 N/A
5:53 pm 17:53 Sunny 59 15 33 0.6 38 38 NW 10 17 30.29 1026 10 16 N/A
6:53 pm 18:53 Sunny 56 13.3 31 -0.6 39 39 NW 6 9 30.32 1027 10 16 N/A
7:53 pm 19:53 Clear 52 11.1 33 0.6 49 49 NNW 8 13 30.36 1028 10 16 N/A
8:53 pm 20:53 Clear 50 10 35 1.7 57 57 VRB 6 9 30.38 1029 10 16 N/A
9:53 pm 21:53 Clear 48 8.9 35 1.7 61 61 N 8 13 30.41 1030 10 16 N/A
10:53 pm 22:53 Clear 46 7.8 34 1.1 63 63 N 8 13 30.44 1031 10 16 N/A
11:53 pm 23:53 Clear 43 6.1 35 1.7 74 74 NNE 6 9 30.47 1032 10 16 N/A

Powered by AerisWeather